INFORMACIÓN METAR y TAF
METAR FOR LEBZ
ADDS - METARS form results

(0149 UTC 21 January 2022)
Data provider http://aviationweather.gov/metar/data/
 
Forecast for: LEBZ (TALAVERA AB/BADA, ES)
Text: TAF LEBZ 202000Z 2021/2121 05004KT CAVOK TX15/2115Z TNM01/2107Z
Forecast period: 2100 UTC 20 January 2022 to 2100 UTC 21 January 2022
Forecast type: FROM: standard forecast or significant change
Winds: from the NE (50 degrees) at 5 MPH (4 knots; 2.1 m/s)
Visibility: 6 or more miles (10+ km)
Ceiling: unknown
Clouds: missing
Weather: no significant weather forecast for this period
Text: PROB30
Forecast period: 0300 to 0900 UTC 21 January 2022
Forecast type: TEMPORARY: The following changes expected for less than half the time period
Visibility: 1.86 miles (2.99 km)
Ceiling: unknown
Clouds: missing
Weather: BR  (mist)

 MAPA DE AEROPUERTO

 INFORMACIÓN DE PISTA
Pista 13 Longitud 9350 ft Ancho 197 ft
Elevación 579 ft Umbral desplazado 0 ft Rumbo de pista 126
Pista 31 Longitud 9350 ft Ancho 197 ft
Elevación 609 ft Umbral desplazado 0 ft Rumbo de pista 306

 FRECUANCIAS DEL AEROPUERTO
Tipo APP Nombre APP Frecuencia 139.3 MHZ
Tipo TWR Nombre BADAJOZ TW Frecuencia 122.1 MHZ

 RADIO AYUDAS DEL AEROPUERTO
Tipo NDB Nombre Badajoz Frecuencia 298 KHZ
Tipo TACAN Nombre Talavera Frecuencia 108800 KHZ
Tipo VOR-DME Nombre Badajoz Frecuencia 116800 KHZ




Powered by Virtual Airlines Manager